TITAN 3C TRANSTAGE DEB, 19592

Orbit data source: Space-Track

TITAN 3C TRANSTAGE DEB, 19592 is space debris in HEO originally from a launch on Tue, 21 Dec 1965 UTC launched from the Air Force Eastern Test Range (AFETR). Debris objects in space refer to the collection of defunct objects orbiting the Earth. Examples of debris include non-operational satellites, rocket bodies, and fragments generated from explosions, collisions, or faulty payload assembly.

Loading next visibility...
Identifier
19592, 1965-108AA
Orbit
HEO
Country
Flag of USUS
Related business
Manufacturer
Unknown
Mission
Spacecraft
Bus & Motor
Unknown
Mass
Unknown
Launch date (UTC)
1965-12-21 (60 years ago)
Launch vehicle
Unknown
Launch site
Air Force Eastern Test Range (AFETR)
Object type
Payload
Rocket body
Debris
Shape & HBR
Unknown
Radar Cross Section
Medium (>0.1 m² and <1 m²)

Expand to show TLE details & history
Last TLE update: 14 hours ago

TLE from 14 hours ago
0 TITAN 3C TRANSTAGE DEB
1 19592U 65108AA  25258.25169462 -.00000008  00000-0  11667-2 0  9995
2 19592  26.8494 317.8513 6709788  50.3731   0.4290  2.84012537337520
Epoch: 2025-09-15T06:02Z
TLE epoch observation values (Epoch: 2025-09-15T06:02:26.415Z)
Latitude
21.49841°
Longitude
-76.53979°
Altitude
543.975 km
Speed
9.812 km/s
True Right ascension
00h 34m 07s
True Declination
21° 22' 40"
Sunlit
Object was in full shadow at epoch
Visualization orbit readout
Latitude
Unknown
Longitude
Unknown
Altitude
Unknown
Speed
Unknown
Apparent Right ascension
Unknown
Apparent Declination
Unknown
Sunlit
N/A
Visualization observer readout
Local Sidereal Time
12:23:15
Azimuth
Unknown
Elevation
Unknown
Doppler factor
Unknown
Orbital elements
Apogee altitude
28,822.845 km
Perigee altitude
553.052 km
Semi-major axis
21,066.085 km
Eccentricity
0.67098
Inclination
26.8494°
RAAN
317.8513°
Arg. of periapsis
50.3731°
True anomaly
2.93734°
Mean anomaly
0.429°
Eccentric anomaly
1.30364°
Mean motion
0.70985 °/min
Orbital period
507.15 mins
BSTAR
0.0011667
Loading maneuver chart data...
Computing Atmospheric mass density...

Documentation

Showing up to 5 results
|